SPACEBEE-68 (48630 NORAD) Tracking and Keplerian Element Data

This shows tracking and keplerian element data for the satellite.

Feedback or suggestion? Click here.




ElementValue
Catalog48630
NameSPACEBEE-68
Epoch Orbit2851
Epoch Day211.11461147
Epoch Year2021
RAAN268.9844
Inclination97.2535
Eccentricity0.0014217
Argument of Perigee307.4221
Mean Anonmoly52.5718
Mean Motion15.14821098
Decay Rate4.342E-05
L11 48630U 21006EW 21211.11461147 .00004342 00000-0 23660-3 0 9995
L22 48630 97.2535 268.9844 0014217 307.4221 52.5718 15.14821098 28512

Live tracking and technical data element details for SPACEBEE-68 (NORAD 48630). SPACEBEE-68 can be tracked NOW for your location showing map with azimuth and elevation plus other details from your city location.

Track the satellite on the map from your city or location and see movement details for azimuth, elevation, latitude, longitude, range, height, and movement on the map or in text.







IsCatalogInMostPopularTable: catalog: 48630, numindb: 19
Update: records affected: 1



GetName: 48630 SPACEBEE-68

Hit Count: updated at: Sat, 31 Jul 2021 16:38:49 GMT